Content
SEND FEEDBACK

Daily
Averages
Monthly
Summary
United States of America

OROVILLE, CALIFORNIA


Home > North America > United States > California
Elevation: 199 feet     Latitude: 39 30N     Longitude: 121 37W

WEATHER
 
SELECT A DAY
Number of Records: 152,524;   Date Range: 6/17/98 - 9/18/14
 
SHARE

PRINT THIS DATA

[ ← Previous Day ]
WEATHER ALMANAC - APRIL 27, 2013
[ Next Day → ]
[ °C ]   °F
Weather ElementAverageHighLow
Temperature71 °F87.1 °F (4:53 pm)55.9 °F (5:53 am)
Dewpoint52.7 °F55 °F (7:53 pm)51.1 °F (4:53 am)
Humidity55.7 %84 % (2:53 am)30 % (4:53 pm)
Barometer30.13 in30.22 in (8:53 am)30.03 in (7:53 pm)
Wind Speed3.6 mph8.1 mph (11:53 pm)
Weather ElementAverage
Visibility10 mi
Wind DirectionENE (83 °)

Weather ElementTotal
Precipitation---
Cooling Degree Days6.5 (Base 65)
Growing Degree Days21.5 (Base 50)
Averaged from 23 records on April 27, 2013
WEATHER CONDITIONS BREAKOUT
WIND DIRECTION BREAKOUT
WEATHER BY HOUR - APRIL 27, 2013
[ °C ]   °F
Local TimeTemperatureDewpointHumidityBarometerVisibilityWind DirectionWind SpeedGust SpeedPrecipitationEventsConditions
1:53 AM63.0 °F53.1 °F70 %30.16 in10.0 miCalmClear
2:53 AM57.9 °F53.1 °F84 %30.16 in10.0 miSE (140°)4.6 mphClear
3:53 AM57.9 °F52.0 °F81 %30.17 in10.0 miSouth (170°)4.6 mphClear
4:53 AM57.0 °F51.1 °F81 %30.18 in10.0 miCalmClear
5:53 AM55.9 °F51.1 °F84 %30.19 in10.0 miEast (100°)3.5 mphClear
6:53 AM57.0 °F52.0 °F83 %30.20 in10.0 miEast (100°)3.5 mphClear
7:53 AM59.0 °F51.1 °F75 %30.21 in10.0 miSE (130°)4.6 mphClear
8:53 AM63.0 °F52.0 °F67 %30.22 in10.0 miSSE (150°)4.6 mphClear
9:53 AM66.9 °F52.0 °F59 %30.22 in10.0 miVariable3.5 mphClear
10:53 AM71.1 °F53.1 °F53 %30.21 in10.0 miVariable3.5 mphClear
11:53 AM73.9 °F52.0 °F46 %30.20 in10.0 miCalmClear
12:53 PM79.0 °F54.0 °F42 %30.18 in10.0 miCalmClear
1:53 PM81.0 °F54.0 °F39 %30.15 in10.0 miCalmClear
2:53 PM82.9 °F53.1 °F36 %30.12 in10.0 miSW (230°)4.6 mphClear
3:53 PM84.9 °F53.1 °F33 %30.09 in10.0 miCalmClear
4:53 PM87.1 °F52.0 °F30 %30.07 in10.0 miEast (90°)4.6 mphClear
5:53 PM86.0 °F51.1 °F30 %30.06 in10.0 miSouth (170°)4.6 mphClear
6:53 PM84.0 °F53.1 °F34 %30.04 in10.0 miSSE (150°)4.6 mphClear
7:53 PM78.1 °F55.0 °F45 %30.03 in10.0 miSSE (160°)5.8 mphClear
8:53 PM73.9 °F54.0 °F50 %30.03 in10.0 miENE (70°)3.5 mphClear
9:53 PM73.0 °F54.0 °F51 %30.04 in10.0 miENE (70°)6.9 mphClear
10:53 PM71.1 °F54.0 °F55 %30.05 in10.0 miEast (100°)6.9 mphClear
11:53 PM70.0 °F52.0 °F53 %30.04 in10.0 miEast (80°)8.1 mphClear
Hourly data recorded from KOVE, located miles away from Oroville, California







STORIES FROM OUR PARTNERS